This demonstration page uses our WeatherBlox Daily Observations layout. Learn more.

Left ArrowRight Arrow

Hourly Observations for September 3, 2019

Temp ( °F °C ) Dew Point ( °F °C ) Humidity (%) Winds ( mph kmh ) Pressure ( in mb ) Visibility ( mi km ) Precip ( " mm )
12:51 am 00:51 Clear 83 28.3 54 12.2 37 37 NW 6 9 29.81 1010 10 16 0.00 0.00
1:51 am 01:51 Clear 81 27.2 54 12.2 39 39 NW 9 15 29.81 1009 10 16 0.00 0.00
2:51 am 02:51 Clear 79 26.1 54 12.2 42 42 NW 7 11 29.80 1009 10 16 0.00 0.00
3:51 am 03:51 Clear 77 25 54 12.2 45 45 NNW 6 9 29.80 1009 10 16 0.00 0.00
4:51 am 04:51 Clear 75 23.9 56 13.3 52 52 NNE 5 7 29.81 1010 10 16 0.00 0.00
5:51 am 05:51 Clear 73 22.8 55 12.8 53 53 S 5 7 29.83 1010 10 16 0.00 0.00
6:51 am 06:51 Sunny 75 23.9 55 12.8 50 50 S 6 9 29.85 1011 10 16 0.00 0.00
7:51 am 07:51 Sunny 83 28.3 52 11.1 34 34 S 6 9 29.85 1011 10 16 0.00 0.00
8:51 am 08:51 Sunny 86 30 53 11.7 32 32 VRB 3 6 29.85 1011 10 16 0.00 0.00
9:51 am 09:51 Sunny 90 32.2 51 10.6 26 26 SE 5 7 29.83 1010 10 16 0.00 0.00
10:51 am 10:51 Sunny 93 33.9 49 9.4 22 22 Calm 29.82 1010 10 16 0.00 0.00
11:51 am 11:51 Sunny 97 36.1 48 8.9 19 19 VRB 7 11 29.78 1008 10 16 0.00 0.00
12:51 pm 12:51 undefined 99 37.2 49 9.4 18 18 SSE 5 7 29.75 1008 10 16 0.00 0.00
1:51 pm 13:51 Sunny 102 38.9 45 7.2 14 14 VRB 3 6 29.72 1006 10 16 0.00 0.00
2:51 pm 14:51 Sunny 102 38.9 41 5 12 12 Calm 29.68 1005 10 16 0.00 0.00
3:51 pm 15:51 Sunny 103 39.4 40 4.4 11 11 VRB 6 9 29.66 1004 10 16 0.00 0.00
4:51 pm 16:51 Sunny 104 40 39 3.9 11 11 S 8 13 29.65 1004 10 16 0.00 0.00
5:04 pm 17:04 Sunny with Nearby Thunderstorms 102 38.9 40 4.4 12 12 undefined N/A 29.52 1000 10 16 0.00 0.00
5:29 pm 17:29 Mostly Sunny 102 38.9 40 4.4 12 12 VRB 3 6 29.52 1000 10 16 0.00 0.00
5:51 pm 17:51 Partly Cloudy 100 37.8 43 6.1 14 14 N 10 17 29.67 1005 10 16 0.00 0.00
6:51 pm 18:51 Clear 96 35.6 45 7.2 17 17 NNE 15 24 29.70 1006 10 16 0.00 0.00
7:51 pm 19:51 Clear 95 35 45 7.2 18 18 NNE 13 20 29.71 1006 10 16 0.00 0.00
8:31 pm 20:31 Clear 91 32.8 49 9.4 24 24 WSW 13 20 29.67 1005 10 16 0.00 0.00
8:51 pm 20:51 Mostly Clear 89 31.7 50 10 26 26 WNW 10 17 29.75 1008 10 16 0.00 0.00
9:51 pm 21:51 Clear 85 29.4 52 11.1 32 32 N 3 6 29.78 1009 10 16 0.00 0.00
10:51 pm 22:51 Clear 85 29.4 51 10.6 31 31 NNE 8 13 29.77 1008 10 16 0.00 0.00
11:51 pm 23:51 Clear 83 28.3 53 11.7 36 36 SW 5 7 29.78 1008 10 16 0.00 0.00

Powered by AerisWeather